#timestamp,LO_Frequency,Hit,StdDev 
1550646015.2,286046996.7,P
1550646035.0,286046996.9,N
1550646035.9,286046996.9,P
1550646055.7,286046997.1,Y
1550646075.6,286047001.0,P
1550646095.4,286046997.7,N
1550646115.3,286046997.7,N
1550646135.1,286046997.2,N
1550646136.0,286046997.2,N
1550646155.8,286047000.1,N
1550646175.7,286047001.3,N
1550646195.5,286047000.5,N
1550646215.4,286047001.3,N
1550646235.2,286047003.7,N
1550646255.0,286047001.9,N
1550646255.9,286047001.9,N
1550646275.8,286047000.9,N
1550646295.6,286047002.8,N
1550646315.4,286047003.8,N
1550646335.3,286047003.4,N
1550646355.1,286047004.0,N
1550646375.9,286047002.3,N
1550646395.7,286046998.9,N
1550646415.5,286047001.6,N
1550646435.4,286046998.1,N
1550646455.2,286046997.1,N
1550646475.0,286047000.9,N
1550646475.9,286047000.9,N
1550646495.8,286047002.4,N
1550646515.6,286046999.9,N
1550646535.5,286047000.4,N
1550646555.3,286047000.3,N
1550646575.1,286047002.3,N
1550646595.9,286047004.4,N
1550646615.7,286047003.8,N
1550646635.5,286047004.3,N
1550646655.4,286047002.1,N
1550646675.2,286047001.0,N
1550646695.1,286046998.2,N
1550646696.0,286046998.2,N
1550646715.8,286046997.1,N
1550646735.6,286046999.6,N
1550646755.5,286046995.3,N
1550646775.3,286046996.6,N
1550646795.1,286047000.5,N
1550646815.9,286047004.4,N
1550646835.7,286047002.7,N
1550646855.6,286047002.5,N
1550646875.4,286046998.6,N
1550646895.2,286047000.4,N
1550646915.1,286046997.5,N
1550646916.0,286046997.5,N
1550646935.8,286046993.8,N
1550646955.7,286046996.1,N
1550646975.5,286046992.1,N
1550646995.3,286046993.8,N
1550647015.2,286046995.9,N
1550647035.0,286046997.4,N
1550647035.9,286046997.4,N
1550647055.7,286046995.1,N
1550647075.6,286046995.1,N
1550647095.4,286046997.4,N
1550647115.3,286046996.8,N
1550647135.1,286046997.2,N
1550647136.0,286046997.2,N
1550647155.8,286046995.1,N
1550647175.7,286046997.8,N
1550647195.5,286046996.5,N
1550647215.4,286046999.2,N
1550647235.2,286047000.0,N
1550647255.0,286046998.9,N
1550647255.9,286046998.9,N
1550647275.8,286046998.8,N
1550647295.6,286046997.6,N
1550647315.4,286046994.6,N
1550647335.3,286046995.6,N
1550647355.1,286046996.2,N
1550647375.9,286046995.0,N
1550647395.7,286046996.1,N
1550647415.5,286046996.1,N
1550647465.4,286046994.9,E
1550647475.3,286046997.8,N
1550647495.2,286047000.6,P
1550647515.9,286047001.9,N
1550647535.7,286047000.1,N
1550647555.6,286047000.1,N
1550647575.4,286047001.0,N
1550647595.2,286046998.4,N
1550647615.1,286046999.1,N
1550647616.0,286046999.1,N
1550647635.8,286046999.1,N
1550647655.7,286046998.2,N
1550647675.5,286047001.1,N
1550647695.3,286046999.5,N
1550647715.2,286046997.6,N
1550647735.0,286046996.7,N
1550647735.9,286046996.7,N
1550647755.8,286046997.6,N
1550647775.6,286046997.5,N
1550647795.4,286046997.2,N
1550647815.3,286046999.2,N
1550647835.1,286046997.5,N
1550647855.8,286046998.8,N
1550647875.7,286046998.5,N
1550647895.5,286046997.0,N
1550647915.4,286046997.1,N
1550647935.2,286046995.1,Y
1550647955.0,286046998.3,P
1550647955.9,286046998.3,P
1550647975.8,286046998.8,P
1550647995.6,286046999.0,Y
1550648015.5,286046998.6,P
1550648035.3,286047000.7,P
1550648055.1,286047000.3,N
1550648075.9,286046998.5,N
1550648095.7,286046998.9,N
1550648115.5,286046999.0,N
1550648135.4,286047001.1,N
1550648155.2,286046999.1,N
1550648175.1,286046999.6,N
1550648176.0,286046999.6,N
1550648195.8,286047001.0,N
1550648215.6,286047001.0,N
1550648235.5,286047000.9,N
1550648255.3,286046998.1,N
1550648275.2,286046999.1,N
1550648295.9,286046998.0,N
1550648315.7,286046995.0,Y
1550648335.6,286047001.1,P
1550648355.4,286046997.7,N
1550648375.2,286046996.8,N
1550648395.1,286046996.9,N
1550648396.0,286046996.9,N
1550648415.8,286046996.7,N
1550648435.7,286046996.6,N
1550648455.5,286047000.5,N
1550648475.3,286046998.3,N
1550648495.2,286046998.9,N
1550648515.0,286047002.7,N
1550648515.9,286047002.7,N
1550648535.7,286046999.9,N
1550648555.6,286046998.5,N
1550648575.4,286046996.6,N
1550648595.3,286046997.2,N
1550648615.1,286046996.7,N
1550648635.8,286046998.5,N
1550648655.7,286046998.3,N
1550648675.5,286046999.7,N
1550648695.4,286047002.4,N
1550648715.2,286047001.0,N
1550648735.0,286046998.5,N
1550648735.9,286046998.5,N
1550648755.8,286046999.0,N
1550648775.6,286046998.6,N
1550648795.4,286046998.8,N
1550648815.3,286047000.7,N
1550648835.1,286047000.8,N
1550648855.9,286046998.4,N
1550648875.7,286046997.6,N
1550648895.5,286046998.0,N
1550648915.4,286046995.7,N
1550648935.2,286046997.5,N
1550648955.0,286046997.8,N
1550648955.9,286046997.8,N
1550648975.8,286046997.6,N
1550648995.6,286046999.5,N
1550649015.5,286046996.8,N
1550649035.3,286046998.0,N
1550649055.1,286046995.0,N
1550649075.9,286046995.9,N
1550649095.7,286046996.2,N
1550649115.6,286046995.7,N
1550649135.4,286046993.8,Y
1550649155.2,286046999.5,P
1550649175.1,286046997.4,P
1550649176.0,286046997.4,P
1550649195.8,286046997.3,Y
1550649215.7,286046996.7,P
1550649235.5,286046996.6,P
1550649255.3,286046996.8,P
1550649275.2,286046998.0,Y
1550649295.0,286047001.9,P
1550649295.9,286047001.9,N
1550649315.7,286047004.1,N
1550649335.6,286047011.9,Y
1550649355.4,286047000.7,P
1550649375.3,286047000.0,N
1550649395.1,286047001.4,N
1550649415.8,286047001.4,N
1550649435.7,286046998.6,N
1550649455.5,286046999.1,N
1550649475.4,286046999.3,N
1550649495.2,286046998.8,N
1550649515.0,286046997.5,N
1550649515.9,286046997.5,N
1550649535.8,286046996.6,N
1550649555.6,286046998.7,N
1550649575.4,286047002.8,N
1550649595.3,286047000.5,N
